CDT,Max TemperatureF,Mean TemperatureF,Min TemperatureF,Max Dew PointF,MeanDew PointF,Min DewpointF,Max Humidity, Mean Humidity, Min Humidity, Max Sea Level PressureIn, Mean Sea Level PressureIn, Min Sea Level PressureIn, Max VisibilityMiles, Mean VisibilityMiles, Min VisibilityMiles, Max Wind SpeedMPH, Mean Wind SpeedMPH, Max Gust SpeedMPH,PrecipitationIn, CloudCover, Events, WindDirDegrees
2012-10-1,68,52,35,43,32,14,81,49,23,30.06,30.01,29.94,10,10,7,21,7,29,0.00,0,,318
2012-10-2,71,52,33,32,27,21,70,37,16,29.97,29.81,29.70,10,10,10,31,10,41,0.00,0,,178
2012-10-3,57,46,35,39,33,19,81,62,43,29.99,29.91,29.80,10,10,7,23,8,31,0.00,2,,15
2012-10-4,42,36,30,39,33,30,100,93,81,30.08,29.91,29.77,10,5,0,30,21,40,0.18,8,Rain-Snow-Thunderstorm,318
2012-10-5,33,32,30,30,29,28,100,93,87,30.22,30.11,30.05,10,5,1,24,19,36,0.00,8,Snow,303
2012-10-6,44,34,24,30,27,23,100,81,49,30.34,30.26,30.13,10,10,10,16,10,21,0.00,4,,290
2012-10-7,53,40,26,37,26,21,93,66,38,30.13,29.91,29.74,10,10,10,18,12,24,0.00,2,,197
2012-10-8,44,38,33,43,35,28,93,81,65,29.73,29.59,29.48,10,10,7,18,8,26,0.01,7,Rain,205
2012-10-9,39,34,26,37,29,27,100,82,65,29.97,29.79,29.63,10,10,1,22,11,28,0.01,7,Snow,283
2012-10-10,41,31,21,34,28,19,100,88,61,30.00,29.96,29.91,10,8,2,13,6,17,0.10,5,Rain-Snow,224
2012-10-11,42,30,19,30,26,18,100,82,49,30.37,30.18,29.94,10,9,4,17,6,25,0.00,3,,314
2012-10-12,48,32,17,25,20,16,100,64,30,30.38,30.18,29.84,10,10,10,25,8,29,0.00,1,,164
2012-10-13,62,48,33,41,33,21,81,59,42,29.83,29.73,29.66,10,10,10,17,8,22,0.00,0,,195
2012-10-14,55,40,26,34,31,25,93,75,38,29.93,29.89,29.82,10,10,10,12,2,,0.00,0,,317
2012-10-15,55,40,26,43,34,25,100,72,51,29.91,29.78,29.56,10,8,1,20,6,22,0.00,3,Rain,164
2012-10-16,73,57,41,54,42,37,87,58,33,29.55,29.45,29.30,10,10,10,14,7,17,0.00,1,,186
2012-10-17,55,48,42,48,45,41,100,89,67,29.30,29.15,29.06,10,7,2,15,5,22,0.64,6,Rain,209
2012-10-18,48,44,41,46,42,39,100,95,93,29.54,29.29,29.12,10,6,2,29,13,38,0.36,8,Rain,354
2012-10-19,42,40,37,41,38,37,100,97,93,29.74,29.68,29.55,10,5,0,29,16,38,0.13,8,Fog-Rain,337
2012-10-20,53,45,37,46,40,37,100,90,72,29.74,29.70,29.65,10,8,0,15,5,17,0.00,6,Fog,176
2012-10-21,55,47,39,48,43,37,100,88,72,30.03,29.83,29.70,10,10,5,17,8,21,0.00,4,,338
2012-10-22,46,40,33,43,38,34,100,88,76,30.09,30.03,29.91,10,10,10,12,7,17,0.01,3,Rain,44
2012-10-23,50,47,44,48,45,39,100,96,81,29.92,29.75,29.65,10,7,2,13,7,20,0.16,8,Rain-Thunderstorm,123
2012-10-24,48,40,33,48,37,30,100,92,87,29.99,29.91,29.75,10,8,1,15,9,17,0.00,8,Rain,302
2012-10-25,35,32,30,30,27,25,93,79,65,30.05,29.95,29.91,10,10,10,23,12,31,0.00,6,Snow,294
2012-10-26,33,30,26,27,21,18,93,70,55,30.26,30.20,30.06,10,10,7,24,16,30,0.00,7,Snow,270
2012-10-27,33,25,17,25,20,16,100,78,55,30.31,30.28,30.24,10,9,1,9,1,,0.00,7,Snow,263
2012-10-28,35,30,24,28,24,21,93,85,70,30.30,30.27,30.23,10,8,2,10,2,,0.00,7,Snow,87
2012-10-29,48,39,30,30,27,21,93,70,43,30.24,30.20,30.17,10,10,7,16,7,22,0.00,5,Snow,125
2012-10-30,44,36,28,32,26,23,93,68,49,30.21,30.16,30.09,10,10,4,14,8,20,0.00,4,,125
2012-10-31,48,38,28,36,30,25,93,75,50,30.10,30.01,29.93,10,10,10,20,3,25,0.00,7,Rain,251